Location: Newark
(49.8969°N, 3.3422°E)
Time: 09:09:14
(UTC+00:00)

deb Explorer IX - Pass Details

Date: 23 January 2020
Orbit: 549 x 1099 km, 38.8° (Epoch: 25 February)

Event Time Altitude Azimuth Distance (km) Brightness Sun altitude
Rises 01:48:48 0° 260° (W) 3,905 - -52.6°
Reaches altitude 10° 01:51:58 10° 250° (WSW) 2,929 - -52.2°
Maximum altitude 01:58:00 30° 193° (SSW) 1,782 - -51.5°
Drops below altitude 10° 02:03:37 10° 136° (SE) 2,714 - -50.8°
Sets 02:06:26 0° 125° (SE) 3,577 - -50.4°
